High Desert Yearling Classic - 5 Mile Toss, Groups

Station: INVENTORY - T Race

Distance: 10 Miles

Release: 07-Apr-2021 10:15

Weather Release:    Arrival:

Wind at Release:     Wind at Arrival:

Temp at Release: °    Temp at Arrival: °

Lofts: 115

Birds: 529

Clocked: 524

Good Luck to Everyone!
Drops Pos Breeder Pigeon Name Color Sex Ent Arrival Speed To Win Elg Pd
1 Gina's Loft - ID 0220-AU20-RMR 668X274 BC H 1 10:33:34.27 947.706 00:00:00 Yes
2 Xfactord - OK 4328-AU20-ARPU Xena BB H 1 10:33:35.55 946.618 00:00:01 Yes
3 Morfin Loft - ID 0846-AU20-IDA BB H 1 10:33:36.52 945.796 00:00:02 Yes
4 Haack Loft - CA 36035-AU20-JEDD MLY H 1 10:33:39.10 943.615 00:00:05 Yes
5 Haack Loft - CA 36018-AU20-JEDD BB H 2 10:33:39.15 943.573 00:00:05 Yes
6 Cheer Flyer Loft - ID 0258-AU20-IDA BBSP H 1 10:33:42.46 940.791 00:00:08 Yes
7 Mario Rodriguez - AZ 61164-AU20-ARPU BB H 1 10:33:44.41 939.159 00:00:10 Yes
8 Lazy A C Loft - IN 0863-AU20-LAZY BB H 1 10:33:46.81 937.159 00:00:13 Yes
9 3 Stars & A Sun - TX 0442-AU20-3SS BC H 1 10:33:46.83 937.142 00:00:13 Yes
10 M & L Loft - TX 2086-AU20-ARPU DC H 1 10:33:48.67 935.614 00:00:14 Yes
11 Maui Nui Syndicate - HI 7064-AU20-MAUI Sistah Nelly BB H 1 10:33:51.52 933.258 00:00:17 Yes
12 Tuna Family Loft - CO 0099-AU20-TFL DC H 1 10:33:51.85 932.986 00:00:18 Yes
13 Stella Loft - TX 40010-AU20-AA BBSP H 1 10:33:52.22 932.681 00:00:18 Yes
14 A & B Partners - PA 0796-IF20-HHC BC H 1 10:33:52.81 932.195 00:00:19 Yes
15 Gina's Loft - ID 0217-AU20-RMR 654X850 BC H 2 10:33:53.64 931.513 00:00:19 Yes
16 Josjim Loft - CA 20167-AU20-LAKE BBWF H 1 10:33:54.81 930.552 00:00:21 Yes
17 Luna-Grajiola - CA 0089-AU20-SEL BB H 1 10:33:56.42 929.234 00:00:22 Yes
18 Team Elite - IL 0838-AU20-ELIT BB H 1 10:33:57.69 928.197 00:00:23 Yes
19 Bob Seymour - ID 24943-AU20-AA BC H 1 10:33:58.06 927.895 00:00:24 Yes
20 Callahan Loft - MO 35458-AU20-AA BB H 1 10:33:58.74 927.341 00:00:24 Yes
21 Racing Pigeon Mall - WA 1092-AU20-RPM BCWF H 1 10:33:59.78 926.495 00:00:26 Yes
22 Callahan Loft - MO 35460-AU20-AA BB H 2 10:34:00.77 925.691 00:00:26 Yes
23 PNWC - ID 0212-IF20-PNWC “PAIR 11” BBWF H 1 10:34:03.08 923.820 00:00:29 Yes
24 Gundog Loft - HI 0725-AU20-PBM BBWF H 1 10:34:08.60 919.380 00:00:34 Yes
25 Haack Loft - CA 22232-AU20-JEDD BB H 3 10:34:10.56 917.814 00:00:36 Yes
26 Yang Family Racing - CA 0892-AU20-YFR La Vita BB H 1 10:34:10.60 917.782 00:00:36 Yes
27 Thunder Birds Breeding Loft - TX 20328-AU20-WIN Shure Thing! BB H 1 10:34:11.03 917.439 00:00:37 Yes
28 -Speeds-RacerS- - FL 2083-AU20-SCHE Lady High Desert BBWF H 1 10:34:11.54 917.033 00:00:37 Yes
29 Vipermann Loft - KS 0891-AU20-TOP BGRZ H 1 10:34:12.81 916.023 00:00:39 Yes
30 Utley Lofts - ID 0783-AU20-IDA BC H 1 10:34:13.79 915.245 00:00:40 Yes
31 Warbird Loft - KS 27714-AU20-AA CHOC H 1 10:34:14.58 914.618 00:00:40 Yes
32 Circle C Lofts - UT 34702-AU20-JEDD BC H 1 10:34:16.50 913.100 00:00:42 Yes
33 Aimhigh Loft - CA 9989-AU20-AA CHIMA 03770723 ¥¥¥ BB H 1 10:34:17.06 912.658 00:00:43 Yes
34 Team Powerstroke - UT 0705-AU20-PS BC H 1 10:34:18.02 911.901 00:00:44 Yes
35 Hewitt-Ireneo - ID 4752-AU20-JEDD BB H 1 10:34:18.67 911.390 00:00:44 Yes
36 Mike Lee - ID 1450-AU20-IDA BC H 1 10:34:21.52 909.154 00:00:47 Yes
37 Maui Nui Syndicate - HI 7079-AU20-MAUI REC H 2 10:34:27.47 904.520 00:00:53 Yes
38 Team Powerstroke - UT 0628-AU20-PS BC H 2 10:34:34.22 899.320 00:01:00 Yes
39 FAmPFA - IL 0208-AU20-LOLF BCSP H 1 10:34:36.25 897.768 00:01:02 Yes
40 Flyhome Loft - KY 2072-AU20-FLYH BCWF H 1 10:34:37.02 897.181 00:01:03 Yes
41 Derrow Loft - WV 18210-AU20-FOYS Paradise PSLT H 1 10:34:38.04 896.404 00:01:04 Yes
42 Hp Loft - CA 3212-AU20-JEDD BB H 1 10:34:48.82 888.276 00:01:15 Yes
43 Kastle Loft - KY 2064-AU20-KAST Kastle Skyeborne BB H 1 10:34:51.56 886.233 00:01:17 Yes
44 Kfly Racing Pigeon Loft - ID 2063-AU20-KFLY Triple Stichel BCSP H 1 10:34:52.71 885.379 00:01:18 Yes
45 Bob Bostwick - CA 0037-AU20-COCO BB H 1 10:34:56.78 882.368 00:01:23 Yes
46 Haack Loft - CA 36022-AU20-JEDD MLY H 4 10:34:56.86 882.309 00:01:23 Yes
47 Radd - OK 4339-AU20-ARPU 2350/2822 N BCWF H 1 10:35:02.28 878.331 00:01:28 Yes
48 Danny Lum - HI 0446-IF20-FSC BB C 1 10:35:06.05 875.586 00:01:32 Yes
49 Lazy A C Loft - IN 0877-AU20-LAZY BB H 2 10:35:18.48 866.654 00:01:44 Yes
50 New Year Loft - PA 2082-AU20-NWYR Wasted day's BC H 1 10:35:26.07 861.289 00:01:52 Yes
51 Silver Dollar Loft - CO 20155-AU20-FH BCSP H 1 10:35:31.00 857.839 00:01:57 Yes
52 Maui Nui Syndicate - HI 7077-AU20-MAUI RED H 3 10:35:31.77 857.303 00:01:58 Yes
53 Josjim Loft - CA 20160-AU20-LAKE BC H 2 10:35:31.86 857.240 00:01:58 Yes
54 Aimhigh Loft - CA 0366-AU20-HAY CHIMA 000661644 ¥¥¥ BB H 2 10:35:33.66 855.989 00:01:59 Yes
55 Thunder Birds Breeding Loft - TX 80117-AU20-ARPU Hi-Roller 907 X Hebberech BC H 2 10:35:38.58 852.589 00:02:04 Yes
56 A.D.S Hilltop Family Loft - NJ 78918-AU20-ARPU BCWF H 1 10:35:41.43 850.632 00:02:07 Yes
57 Perfection Loft - KS 13019-AU20-AA BB H 1 10:35:44.02 848.861 00:02:10 Yes
58 New Year Loft - PA 2060-AU20-NWYR Ya Hoo Dee PBB H 2 10:35:44.93 848.240 00:02:11 Yes
59 Team Powerstroke - UT 0622-AU20-PS BB H 3 10:35:48.11 846.079 00:02:14 Yes
60 RandolphRacers - AL 20590-AU20-MOBB BB H 1 10:35:59.37 838.514 00:02:25 Yes
61 Rachel Olivieri - CA 37384-AU20-AA 72 X IH BBWF H 1 10:36:06.05 834.090 00:02:32 Yes
62 Wise Loft - IL 0096-AU20-WISE BBWF H 1 10:36:07.19 833.340 00:02:33 Yes
63 Lazy A C Loft - IN 0851-AU20-LAZY BB H 3 10:36:07.89 832.880 00:02:34 Yes
64 Hess & Christopher - UT 20335-AU20-GS BC H 1 10:36:11.89 830.260 00:02:38 Yes
65 Wise Loft - IL 0097-AU20-WISE BB H 2 10:36:17.59 826.556 00:02:43 Yes
66 Maui Nui Syndicate - HI 7062-AU20-MAUI Sistah 379 BC H 4 10:36:22.57 823.347 00:02:48 Yes
67 Chick Clayton - ID 0229-AU20-IDA BC H 1 10:36:30.23 818.459 00:02:56 Yes
68 Eastern Pearl Loft - VA 0823-AU20-EPL 🈚️量823=270x263 BB H 1 10:36:30.94 818.009 00:02:57 Yes
69 Vipermann Loft - KS 0892-AU20-TOP BB H 2 10:36:33.01 816.699 00:02:59 Yes
70 Ed Kehl - UT 1689-AU20-WGS PBB H 1 10:36:33.26 816.541 00:02:59 Yes
71 Kwan Loft - CA 2083-AU20-KWAN BLK H 1 10:36:33.57 816.345 00:02:59 Yes
72 Cloux Loft - CO 20782-AU20-FH BCPD H 1 10:36:34.44 815.797 00:03:00 Yes
73 Kastle Loft - KY 2028-AU20-KAST Kastle Double Dose BC H 2 10:36:39.18 812.820 00:03:05 Yes
74 C Flores Loft - FL 17496-AU20-ARPU BB H 1 10:36:42.03 811.041 00:03:08 Yes
75 Carini / Codd - OR 2046-AU20-CARI BB H 1 10:36:50.38 805.873 00:03:16 Yes
76 Scott/Carol Team - UT 0325-AU20-RW BBWF H 1 10:36:57.54 801.494 00:03:23 Yes
77 Racing Pigeon Mall - WA 1087-AU20-RPM BB H 2 10:37:02.84 798.282 00:03:29 Yes
78 Rachel Olivieri - CA 37385-AU20-AA 72 X IH BB H 2 10:37:02.97 798.204 00:03:29 Yes
79 Circle C Lofts - UT 34701-AU20-JEDD BB H 2 10:37:04.12 797.511 00:03:30 Yes
80 Thunder Birds Breeding Loft - TX 20188-AU20-WIN Holly - K DC C 3 10:37:04.86 797.065 00:03:31 Yes
81 Lazy A C Loft - IN 0849-AU20-LAZY BB H 4 10:37:06.92 795.828 00:03:33 Yes
82 3 Stars & A Sun - TX 0443-AU20-3SS BCWF H 2 10:37:15.33 790.816 00:03:41 Yes
83 Haack Loft - CA 22248-AU20-JEDD RC H 5 10:37:24.96 785.153 00:03:51 Yes
84 New Year Loft - PA 2084-AU20-NWYR Blue Bird BB H 3 10:37:43.03 774.745 00:04:09 Yes
85 Rodriguez Loft - TX 5470-AU20-JEDD INBRED 109/79 BB H 1 10:37:46.22 772.936 00:04:12 Yes
86 Cloux Loft - CO 20777-AU20-FH BCPD H 2 10:37:51.96 769.702 00:04:18 Yes
87 Hp Loft - CA 3215-AU20-JEDD BB H 2 10:38:26.65 750.720 00:04:52 Yes
88 Callahan Loft - MO 35455-AU20-AA BC H 3 10:38:27.94 750.032 00:04:54 Yes
89 A & B Partners - PA 0897-IF20-HBG BB H 2 10:38:42.35 742.433 00:05:08 Yes
90 208Lofts - ID 0148-AU20-208 385/40589 BB H 1 10:38:44.27 741.432 00:05:10 Yes
91 Scott/Carol Team - UT 0328-AU20-RW BB H 2 10:38:59.68 733.496 00:05:25 Yes
92 Cloux Loft - CO 20779-AU20-FH AL H 3 10:39:01.25 732.697 00:05:27 Yes
93 Rachel Olivieri - CA 37376-AU20-AA G X 1841 BB H 3 10:39:01.98 732.326 00:05:28 Yes
94 Transilvania Loft - NV 0293-AU20-CFL BB H 1 10:39:15.37 725.589 00:05:41 Yes
95 Radd - OK 4333-AU20-ARPU 41251/2049 SS BC H 2 10:39:22.55 722.027 00:05:48 Yes
96 Rueter Family Loft - OR 4907-AU20-CORP BBWF C 1 10:39:31.63 717.572 00:05:57 Yes
97 Team Powerstroke - UT 0629-AU20-PS BB H 4 10:39:37.04 714.943 00:06:03 Yes
98 Circle C Lofts - UT 0367-AU20-DWI BB H 3 10:39:56.59 705.604 00:06:22 Yes
99 Perfection Loft - KS 13022-AU20-AA BB H 2 10:39:58.57 704.672 00:06:24 Yes
100 Maui Nui Syndicate - HI 7081-AU20-MAUI BC H 5 10:39:59.73 704.127 00:06:25 Yes

There are 524 bird records

Note: These Race Results are unofficial and subject to change until verified by the Race Committee and declared final.